Regional Weather Roundup
Issued by NWS Jackson, KY

Home | Current Version | Previous Version | Text Only | Print | Product List | Glossary Off
Versions: 1 2 3 4 5 6 7 8 9 10 11 12 13 14 15 16 17 18 19 20 21 22 23 24 25 26 27 28 29 30 31 32 33 34 35 36 37 38 39 40 41 42 43 44 45 46 47 48 49 50

000
ASUS43 KJKL 191610
RWRJKL

EAST KENTUCKY HOURLY WEATHER ROUNDUP
NATIONAL WEATHER SERVICE JACKSON KY
1200 PM EDT SUN APR 19 2015

NOTE: "FAIR" INDICATES FEW OR NO CLOUDS BELOW 12,000 FEET WITH
NO SIGNIFICANT WEATHER AND/OR OBSTRUCTIONS TO VISIBILITY.

* THESE REPORTS ARE NOT UNDER NWS QUALITY CONTROL AND MAY NOT
  REPORT WEATHER SUCH AS PRECIPITATION AND FOG.

KYZ079-080-083-085-087-088-110-112-115-119-120-191700
...EASTERN KENTUCKY...

CITY           SKY/WX    TMP DP  RH WIND       PRES   REMARKS
JACKSON        LGT RAIN  62  59  90 VRB5      29.80F FOG
LONDON         LGT RAIN  65  59  81 E8        29.74F
SOMERSET*      CLOUDY    63  63 100 SE14G21   29.72F
MONTICELLO*    CLOUDY    66  64  94 SE10      29.72F FOG
MIDDLESBORO*   RAIN      64  63  99 CALM      29.78F
HARLAN APT*    CLOUDY    63  61  94 SE6G21    29.81F
HAZARD APT*    LGT RAIN  64  64 100 CALM      29.79F
BLACK MTN*       N/A     55  55 100 E5          N/A
PIKEVILLE APT* LGT RAIN  63  59  88 SE12G20   29.81F
BIG SANDY*     LGT RAIN  65  62  90 SE10      29.82F
$$

KYZ035-036-041-042-044-050-067-078-099-191700
...CENTRAL KENTUCKY...

CITY           SKY/WX    TMP DP  RH WIND       PRES   REMARKS
MT STERLING*   RAIN      63  61  94 SE13G20   29.77F
FLEMING/MASON* LGT RAIN  63  61  94 SE12      29.79F
DANVILLE*      LGT RAIN  63  61  94 SE6       29.71F
RICHMOND*      CLOUDY    63  59  88 SE14G21   29.72F
LEXINGTON      LGT RAIN  64  60  87 SE15G25   29.71F
FRANKFORT      CLOUDY    63  60  90 E14       29.67F
$$

KYZ091>093-OHZ055-061-077-WVZ005-015-034-035-042-191700
...SOUTHERN OHIO/WEST VIRGINIA...

CITY           SKY/WX    TMP DP  RH WIND       PRES   REMARKS
COVINGTON      LGT RAIN  60  57  89 E13       29.75F FOG
COLUMBUS       CLOUDY    73  52  47 SE16G29   29.82F
DAYTON         CLOUDY    66  51  58 SE10      29.79F
WILMINGTON     LGT RAIN  65  56  72 SE14G28   29.79F
HUNTINGTON     LGT RAIN  64  61  90 E5        29.82F
CHARLESTON     CLOUDY    72  48  42 SE14G25   29.86F
PINEVILLE*     LGT RAIN  65  59  82 MISG      29.95F
BECKLEY        LGT RAIN  60  54  80 SE21G30   29.96F
BLUEFIELD      LGT RAIN  61  55  81 SE13G25   29.97F
$$

VAZ002-007-008-TNZ017-027-036-066-071-191700
...SOUTHWEST VIRGINIA/EAST TENNESSEE...

CITY           SKY/WX    TMP DP  RH WIND       PRES   REMARKS
WISE*          DRIZZLE   61  54  77 SE8       29.88F
JONESVILLE*    LGT RAIN  63  63 100 NE6       29.84F
ABINGDON*      DRIZZLE   64  61  88 E13       29.89F
BRISTOL        LGT RAIN  65  62  90 VRB6      29.85S
KNOXVILLE      PTSUNNY   68  63  84 E8        29.75F
OAK RIDGE      CLOUDY    66  63  90 E5        29.76F
CROSSVILLE     PTSUNNY   67  62  84 S9G16     29.74F
NASHVILLE      CLOUDY    70  66  87 SW8       29.64F
$$

...KEY TO REMARKS...
VSB - VISIBILITY IN MILES
WCI - WIND CHILL INDEX
HX  - HEAT INDEX

$$


USA.gov is the U.S. government's official web portal to all federal, state and local government web resources and services.